Terminal Aerodrome Forecast
Issued by NWS Paducah, KY

Home | Current Version | Previous Version | Text Only | Print | Product List | Glossary On
Versions: 1 2 3 4 5 6 7 8 9 10 11 12 13
000
FTUS43 KPAH 270500
TAFPAH
TAF
KPAH 270520Z 2706/2806 22008KT P6SM SCT120
     FM271400 27012G18KT P6SM SCT040 BKN180
     FM272200 30012G20KT P6SM SKC
     FM280000 32010KT P6SM SKC=

USA.gov is the U.S. government's official web portal to all federal, state and local government web resources and services.